Regional Weather Roundup
Issued by NWS

Home | Current Version | Previous Version | Graphics & Text | Print | Product List | Glossary On
Versions: 1 2 3 4 5 6 7 8 9 10 11 12 13 14 15 16 17 18 19 20 21 22 23 24 25 26 27 28 29 30 31 32 33 34 35 36 37 38 39 40 41 42 43 44 45 46 47 48 49 50
000
ASUS43 KLMK 292210
RWRKY
KENTUCKY REGIONAL WEATHER ROUNDUP
NATIONAL WEATHER SERVICE LOUISVILLE KY
600 PM EDT MON MAY 29 2017

NOTE "FAIR" INDICATES FEW OR NO CLOUDS BELOW 12,000 FEET
WITH NO SIGNIFICANT WEATHER AND/OR OBSTRUCTIONS TO VISIBILITY.

KYZ001>023-026-027-061>063-070>075-292300-
WESTERN AND SOUTH CENTRAL KENTUCKY

CITY           SKY/WX    TMP DP  RH WIND       PRES   REMARKS
PADUCAH        CLOUDY    84  52  33 W16       29.93S
HENDERSON      CLOUDY    83  56  39 SW12G18   29.92S
OWENSBORO      CLOUDY    83  54  36 W14       29.93R
HOPKINSVILLE   CLOUDY    81  57  43 SW9       29.96S
BOWLING GREEN  CLOUDY    81  56  42 SW9       29.95F
GLASGOW        MOSUNNY   78  60  54 S6        29.97R
$$

KYZ024-025-028>034-038-045-046-053-292300-
NORTH CENTRAL KENTUCKY

CITY           SKY/WX    TMP DP  RH WIND       PRES   REMARKS
LOUISVILLE/SDF CLOUDY    83  52  34 SW13      29.92S
LOUISVILLE/LOU CLOUDY    83  53  35 SW10      29.93S
FORT KNOX      CLOUDY    81  57  43 S8        29.93S
$$

KYZ035>037-039>044-047>052-055>060-089>105-292300-
NORTHEAST KENTUCKY

CITY           SKY/WX    TMP DP  RH WIND       PRES   REMARKS
LEXINGTON      MOSUNNY   79  56  45 SW7       29.96F
COVINGTON      PTSUNNY   80  51  36 SW10G20   29.91F
FRANKFORT      MOSUNNY   79  54  41 SW8       29.93F
$$

KYZ054-064>069-076>088-106>120-292300-
SOUTHEAST KENTUCKY

CITY           SKY/WX    TMP DP  RH WIND       PRES   REMARKS
JACKSON        MOSUNNY   75  58  55 CALM      30.00S
LONDON         CLOUDY    76  56  49 SW6       30.00F
SOMERSET       MOSUNNY   73  57  56 S7        30.01S
MIDDLESBORO    MOSUNNY   76  62  62 SW5       30.01S
MONTICELLO     CLOUDY    76  62  62 VRB7G17   30.02S
$$





USA.gov is the U.S. government's official web portal to all federal, state and local government web resources and services.